www.pogodaiklimat.ru

Погода и климат >> Архив погоды >> Мексика >> Manzanillo


ПОГОДА в Manzanillo

  • Прогноз погоды в Manzanillo
  • Монитор погоды в Manzanillo
  • Климат города

АРХИВ ПОГОДЫ в Manzanillo

Время (UTC), дата Ветер
(напр.,м/с)
 
Видим.   Явления Облачность Т
(С)
Тd
(С)
f
(%)
Тe
(С)
Тes
(С)
Комфортность P
(гПа)
Po
(гПа)
Тmin
(С)
Tmax
(С)
R
(мм)
R24
(мм)
S
(см)
06 17.08 С 3 6000 м слабая морось {туман} 10/6 300 м
[Cb cap As op]
+26.6 +25.5 94 +39 +39 очень
душно
1014.1 1013.7 1
09 17.08 С 1 6000 м мгла {туман} 5/5 600 м
[Sc]
+26.6 +23.8 85 +37 +37 очень
душно
1013.0 1012.6
12 17.08 С 2 6000 м мгла {туман} ясно +25.9 +24.0 89 +36 +36 очень
душно
1013.1 1012.7 +25.8 +34.0
15 17.08 С 2 6000 м мгла {туман} 6/0 2000 м
[Ac und Cs]
+28.7 +25.2 81 +42 +46 опасность
перегрева
1014.1 1013.7
18 17.08 ЮВ 2 6000 м мгла {туман} 4/1 600 м
[Cu hum Ac trans]
+33.7 +24.2 58 +46 +61 опасность
перегрева
1014.8 1014.4 +25.6 +34.7
21 17.08 Ю 2 6000 м мгла {туман} 3/0 1500 м
[Ac trans]
+33.1 +26.3 68 +50 +63 опасность
перегрева
1013.6 1013.2
00 18.08 З 2 6000 м мгла {туман} 5/0 1500 м
[As op]
+31.5 +26.8 76 +49 +50 опасность
перегрева
1012.2 1011.8 +25.4 +35.0
09 18.08 С 2 6000 м мгла {туман} ясно +27.8 +25.5 87 +41 +41 опасность
перегрева
1013.4 1013.0
12 18.08 С 1 6000 м мгла {туман} ясно +26.9 +24.8 88 +38 +38 очень
душно
1013.7 1013.3 +26.9 +35.0
15 18.08 СВ 1 6000 м мгла {туман} 4/0
[Cs]
+29.7 +25.0 76 +43 +50 опасность
перегрева
1013.6 1013.2
18 18.08 Ю 2 6000 м мгла {туман} 4/1 600 м
[Cb calv Cs]
+33.2 +26.7 69 +51 +68 опасность
перегрева
1013.6 1013.2 +26.5 +34.5
21 18.08 ЮЗ 3 6000 м мгла {туман} 9/1 600 м
[Cu hum Cs]
+31.7 +26.3 73 +48 +58 опасность
перегрева
1011.5 1011.1
00 19.08 ЮЗ 3 6000 м мгла {туман} 9/1 300 м
[Cu hum Cs]
+30.6 +27.1 82 +48 +50 опасность
перегрева
1010.6 1010.2 +26.5 +34.5
03 19.08 ЮЗ 2 6000 м мгла {туман} 1/0
[Ci fib]
+29.6 +26.6 84 +46 +46 опасность
перегрева
1011.9 1011.5
09 19.08 В 2 6000 м мгла {туман} 9/9 600 м
[Sc]
+26.4 +24.4 89 +37 +37 очень
душно
1014.2 1013.8
12 19.08 С 4 6000 м слабая морось {туман} 9/9 300 м
[Sc]
+24.3 +22.2 88 +32 +32 очень
душно
1013.5 1013.1 4
15 19.08 С 4 6000 м мгла {дождь, морось} 9/3 600 м
[Sc Ac trans]
+25.7 +22.7 84 +34 +36 очень
душно
1014.3 1013.9 0.5
18 19.08 СЗ 1 6000 м мгла {дождь, морось} 9/0 2000 м
[Ac trans Cs]
+30.9 +22.4 61 +40 +55 опасность
солнечного
удара
1013.3 1012.9 0.5
21 19.08 ЮЗ 3 7000 м мгла {туман} 9/3 600 м
[Cb cap Cs]
+32.0 +26.8 74 +49 +57 опасность
перегрева
1010.8 1010.4
00 20.08 ЮЗ 2 7000 м мгла {туман} 6/3 300 м
[Cb calv Ac und]
+31.4 +27.1 78 +49 +50 опасность
перегрева
1008.9 1008.5 +23.0 +32.8
12 20.08 С 1 6000 м зарница {туман} 1/1 300 м
[Cb calv]
+26.2 +24.6 91 +37 +37 очень
душно
1011.7 1011.3 +26.0 +32.8
15 20.08 С 2 6000 м мгла {туман} 1/0
[Ci fib]
+29.9 +25.8 79 +45 +51 опасность
перегрева
1011.2 1010.8
18 20.08 Ю 2 6000 м мгла {туман} 3/0
[Ci fib]
+32.9 +27.6 74 +53 +72 опасность
перегрева
1012.1 1011.7 +25.8 +33.9
21 20.08 ЮЗ 2 7000 м мгла {туман} 4/4 600 м
[Cb cap]
+33.4 +26.9 69 +51 +61 опасность
перегрева
1009.8 1009.4
00 21.08 З 3 7000 м мгла {туман} 8/3 300 м
[Cb cap As op Ci fib]
+31.8 +25.8 71 +47 +48 опасность
перегрева
1009.2 1008.8 +25.8 +34.2
09 21.08 Ю 2 6000 м мгла {туман} ясно +28.3 +26.3 89 +43 +43 опасность
перегрева
1012.0 1011.6
12 21.08 С 2 6000 м мгла {туман} ясно +28.0 +24.5 81 +39 +39 очень
душно
1011.7 1011.3 +27.5 +34.2
15 21.08 С 2 6000 м мгла {морось, туман} 3/0 2000 м
[Ac trans]
+29.5 +23.7 71 +40 +46 очень
душно
1012.8 1012.4 0.0
18 21.08 Ю 2 6000 м мгла {морось, туман} 3/3 300 м
[Cu med, cong Ac trans]
+32.7 +27.0 72 +51 +65 опасность
перегрева
1013.1 1012.7 0.0
21 21.08 Ю 2 7000 м мгла {туман} 4/4 600 м
[Cu med, cong]
+33.4 +28.1 74 +54 +64 опасность
перегрева
1010.7 1010.3
00 22.08 ЮЗ 2 7000 м мгла {туман} 5/5 300 м
[Cb cap]
+32.1 +26.6 73 +49 +50 опасность
перегрева
1010.5 1010.1 +27.6 +34.9
03 22.08 З 2 6000 м мгла {туман} 1/0
[Ci fib]
+30.2 +26.8 82 +47 +47 опасность
перегрева
1011.8 1011.4
06 22.08 С 1 6000 м мгла {туман} 3/0 2000 м
[Ac und]
+29.7 +27.0 85 +47 +47 опасность
перегрева
1013.0 1012.6 +27.5 +34.9
09 22.08 В 1 6000 м мгла {туман} 9/9 600 м
[Sc]
+29.0 +26.8 88 +45 +45 опасность
перегрева
1012.0 1011.6
12 22.08 ЮВ 1 6000 м слабая морось {туман} 9/9 300 м
[Sc]
+23.2 +22.1 94 +32 +32 очень
душно
1014.0 1013.6 4
15 22.08 С 2 6000 м слабый переохл. дождь (гололёд) 10/0 1500 м
[As op]
+23.6 +23.1 97 +31 +33 очень
душно
1015.1 1014.7 11
18 22.08 С 2 7000 м мгла {туман} 10/0 1500 м
[As op]
+26.9 +24.5 87 +38 +42 очень
душно
1015.4 1015.0 11
21 22.08 ЮВ 1 6000 м мгла {туман} 10/0 1500 м
[As trans]
+30.4 +26.2 78 +46 +54 опасность
перегрева
1012.4 1012.0
00 23.08 ЮВ 1 6000 м мгла {туман} 9/9 300 м
[Sc]
+29.7 +25.7 79 +44 +44 опасность
перегрева
1011.6 1011.2 +22.1 +31.3
03 23.08 СЗ 1 6000 м мгла {туман} ясно +28.2 +24.7 81 +40 +40 очень
душно
1013.3 1012.9
06 23.08 СЗ 2 6000 м мгла {туман} ясно +27.2 +24.8 87 +39 +39 очень
душно
1015.5 1015.1 +22.1 +31.3
09 23.08 С 1 6000 м мгла {туман} ясно +26.1 +25.2 95 +38 +38 очень
душно
1014.4 1014.0
12 23.08 С 2 6000 м мгла {туман} ясно +25.9 +24.4 91 +36 +36 очень
душно
1013.6 1013.2 +25.0 +31.3
15 23.08 С 2 6000 м мгла {туман} 9/0
[Cs]
+27.8 +25.1 85 +40 +45 очень
душно
1013.6 1013.2
18 23.08 ЮЗ 2 6000 м мгла {туман} 6/0
[Cs]
+31.1 +26.0 74 +46 +64 опасность
перегрева
1010.9 1010.5 +25.6 +32.5
21 23.08 ЮЗ 2 6000 м мгла {туман} 8/0
[Ci fib]
+30.9 +26.6 78 +48 +61 опасность
перегрева
1009.9 1009.5
00 24.08 ЮЗ 2 6000 м мгла {туман} 9/0 1500 м
[As op]
+29.8 +25.7 79 +44 +45 опасность
перегрева
1010.3 1009.9 +25.6 +32.9
03 24.08 З 2 6000 м мгла {туман} 1/0 2000 м
[Ac trans]
+29.3 +24.6 76 +42 +42 опасность
перегрева
1009.7 1009.3

 

Местоположение метеостанции Manzanillo (Мексика): широта 19.05 долгота -104.30 высота над уровнем моря 3 м.

В архиве по умолчанию представлена погода в Manzanillo за последнюю неделю. Архивные данные за месяц целиком и за предыдущие месяцы, начиная с января 2011 года, Вы можете получить, выбрав интересующий диапазон дат из раскрывающегося списка и нажав кнопку "Ввод!".

Внимание! Время в таблицах - всемирное. Для получения местного времени необходимо прибавить поправку, которая в Manzanillo равна -6 ч.

Смотрите также архив погоды в соседних городах и на ближайших метеорологических станциях:

Погода в Colima (Мексика) (88 км)
Погода в Ciudad Guzman (Мексика) (120 км)
Погода в Guadalajara (Мексика) (208 км)
Погода в Zamora (Мексика) (234 км)
Погода в Tepic (Мексика) (280 км)
Погода в Morelia (Мексика) (343 км)
Погода в Colotlan (Мексика) (356 км)
Погода в Lagos De Moreno (Мексика) (357 км)
Погода в Aguascalientes (Мексика) (377 км)
Погода в Huejucar (Мексика) (383 км)

Пояснения к столбцам:

Ветер - указаны скорость ветра в м/с - средняя за 10 мин, порывы в срок и между сроками (в фигурных скобках) и направление, откуда дует ветер: С - северный, СВ - северо-восточный, В - восточный, ЮВ - юго-восточный, Ю - южный, ЮЗ - юго-западный, З - западный, СЗ - северо-западный.
Видимость - горизонтальная дальность видимости в метрах или километрах. При видимости от 1 до 10 км при отсутствии осадков обычно наблюдается дымка, при ухудшении видимости до 1 км и менее - туман. В сухую погоду видимость может ухудшаться дымом, пылью или мглою.
Явления - указаны атмосферные явления, наблюдавшиеся в срок или в последний час перед сроком; фигурными скобками обозначены явления, наблюдавшиеся между сроками (за 1-3 часа до срока); квадратными скобками обозначены град или гололедные отложения с указанием их диаметра в мм.
Облачность - указаны через наклонную черту общая и нижняя облачность в баллах и высота нижней границы облаков в метрах; квадратными скобками обозначены формы облаков: Ci - перистые, Cs - перисто-слоистые, Cc - перисто-кучевые, Ac - высококучевые, As - высокослоистые, Sc - слоисто-кучевые, Ns - слоисто-дождевые, Cu - кучевые, Cb - кучево-дождевые. Подробнее классификацию облаков см. в Атласе облаков (PDF).
T - Температура воздуха - температура, измеренная на высоте 2 м над землей.
Td - Температура точки росы - температура, при понижении до которой содержащийся в воздухе водяной пар достигнет насыщения.
f - Относительная влажность воздуха - влажноcть воздуха, измеренная на высоте 2 м над землей.
Te - Эффективная температура - температура, которую ощущает одетый по сезону человек в тени. Характеристика душности погоды. При расчете учитывается влияние влажности воздуха и скорости ветра на теплоощущения человека.
Tes - Эффективная температура на солнце - температура, которую ощущает человек, с поправкой на солнечный нагрев. Характеристика знойности погоды. Зависит от высоты солнца над горизонтом, облачности и скорости ветра. Ночью, в пасмурную погоду, а также при ветре 12 м/с и более поправка равна нулю.
P - Атмосферное давление - приведенное к уровню моря атмосферное давление.
Po - Атмосферное давление - измеренное на уровне метеостанции атмосферное давление.
Tmin - Минимальная температура - минимум температуры воздуха на высоте 2 м над землей.
Tmax - Максимальная температура - максимум температуры воздуха на высоте 2 м над землей.
R - Количество осадков - Количество выпавших осадков за период времени, мм. При наведении курсора мыши на число - период времени, за который выпало указанное количество осадков.
R24 - Количество осадков - Количество выпавших осадков за 24 часа, мм.
S - Снежный покров - Высота снежного покрова, см. При наведении курсора мыши на число - состояние снежного покрова и степень покрытия местности в баллах.